Miscellaneous Local Product
Issued by NWS Hastings, NE

Home | Current Version | Previous Version | Text Only | Print | Product List | Glossary Off
Versions: 1 2 3 4 5 6 7 8 9 10 11 12 13 14 15 16 17 18 19 20 21 22 23 24 25 26 27 28 29 30 31 32 33 34 35 36 37 38 39 40 41 42 43 44 45 46 47 48 49 50

422
AXUS43 KGID 121902
MISGRI

GID CWA HOURLY WEATHER ROUNDUP
NATIONAL WEATHER SERVICE HASTINGS NE
100 PM CST TUE DEC 12 2017

NOTE: "FAIR" INDICATES FEW OR NO CLOUDS BELOW 12,000 FEET WITH NO
SIGNIFICANT WEATHER AND/OR OBSTRUCTIONS TO VISIBILITY.

...SOUTH CENTRAL NEBRASKA...

CITY           SKY/WX    TMP DP  RH WIND       PRES   REMARKS
GRAND ISLAND   SUNNY     47  27  45 W10       30.17F
KEARNEY        SUNNY     47  22  37 W8        30.17F
HASTINGS       SUNNY     46  24  42 W13       30.18F
ORD            SUNNY     47  24  40 W8        30.13F
YORK           SUNNY     45  28  53 W13       30.20F
AURORA         SUNNY     45  27  50 W10       30.17F
LEXINGTON      SUNNY     46  21  36 W7        30.17F
HOLDREGE       SUNNY     46  26  44 SW7       30.18F
HEBRON         SUNNY     47  28  48 SW6       30.22F

...NEBRASKA PANHANDLE...

CITY           SKY/WX    TMP DP  RH WIND       PRES   REMARKS
CHADRON        SUNNY     55  23  28 W10       30.14F
ALLIANCE       SUNNY     62  20  19 NW17      30.15F
SCOTTSBLUFF    SUNNY     57  18  21 W13       30.19F
SIDNEY         SUNNY     63  16  16 NW14      30.20F

...WESTERN AND NORTH CENTRAL NEBRASKA...

CITY           SKY/WX    TMP DP  RH WIND       PRES   REMARKS
VALENTINE      SUNNY     51  21  30 SW10      30.09F
AINSWORTH      SUNNY     50  21  31 W8        30.10F
ONEILL         SUNNY     45  29  52 W10       30.11F
BROKEN BOW     SUNNY     50  18  28 W10       30.14F
IMPERIAL       SUNNY     59  18  20 NW7       30.19F
NORTH PLATTE   SUNNY     48  23  37 W7        30.17F
MCCOOK         SUNNY     48  22  35 W8        30.20F

...EASTERN NEBRASKA...

CITY           SKY/WX    TMP DP  RH WIND       PRES   REMARKS
NORFOLK        SUNNY     43  27  53 W9G16     30.11F
SO SIOUX CITY  MOSUNNY   37  26  64 SW9       30.14F WCI  30
TEKAMAH        CLOUDY    37  23  56 MISG      30.18F
ALBION         SUNNY     45  28  52 W9        30.13F
OMAHA EPPLEY   PTSUNNY   35  19  52 S7        30.21F WCI  29
OFFUTT AFB     PTSUNNY   36  21  55 SW8       30.20F WCI  29
MILLARD        CLOUDY    36  24  62 W6        30.21F WCI  31
LINCOLN        PTSUNNY   43  29  57 W5        30.21F
NEBRASKA CITY  PTSUNNY   36  25  63 W8        30.23F WCI  30
BEATRICE       PTSUNNY   45  30  57 W13       30.21F
FALLS CITY     SUNNY     37  21  52 W8        30.25F WCI  31

...NORTHERN KANSAS...

CITY           SKY/WX    TMP DP  RH WIND       PRES   REMARKS
GOODLAND       SUNNY     60  15  17 NW10G23   30.21F
HILL CITY      SUNNY     54  19  25 W8        30.22F
NORTON         CLEAR     54  14  20 W9        30.19F
PHILLIPSBURG   SUNNY     52  21  30 W6        30.22F
SMITH CENTER   CLOUDY    46  27  46 SW12      30.23F
HAYS           SUNNY     53  24  32 W12       30.23F
RUSSELL        SUNNY     49  26  41 W8        30.23F
CONCORDIA      SUNNY     45  28  51 W8G18     30.22F
SALINA         SUNNY     49  29  46 SW12      30.26F
TOPEKA         PTSUNNY   39  23  52 SW6       30.27F WCI  35



USA.gov is the U.S. government's official web portal to all federal, state and local government web resources and services.